User: anonymous   Login
Location: Caltech
(34.1382°N, 118.1253°W)
Time: 20:37:45
(UTC-08:00)
Language:

BREEZE M DEB (TANK) - Orbit

View from above orbital plane
View from above orbital plane
View from above satellite
View from above satellite

Ground track
Ground track

The orbit data is extracted from the following two-line orbital elements,

1 33437U 08057B   16336.57583966 +.00001089 +00000-0 +22615-3 0  9995
2 33437 049.5907 055.3411 5004741 291.8544 023.2764 05.59817681162776
Epoch (UTC): 01 December 2016 13:49:12
Eccentricity: 0.5004741
inclination: 49.5907°
perigee height: 314 km
apogee height: 13725 km
right ascension of ascending node: 55.3411°
argument of perigee: 291.8544°
revolutions per day: 5.59817681
mean anomaly at epoch: 23.2764°
orbit number at epoch: 16277

The dashed part of the orbit path shows where the satellite is in the earth's shadow,  

DLR